Wetbulb
58.20 58.00 57.53 56.68 55.49 53.82 52.25 54.05 52.37 58.87 56.32 51.85 47.42 47.45 51.16 51.65 51.52 55.14 53.98 52.88 50.80 48.91 49.78 47.68 47.17 48.45 49.56 52.60 51.46 48.89 47.73 42.52 41.02 43.49 46.22 49.02 43.07 44.82 39.77 37.56 39.18 41.29 43.36 47.79
58.36 58.00 57.25 56.36 55.35 54.36 50.97 54.13 53.77 58.50 57.04 48.07 49.17 49.49 51.75 53.00 52.91 51.90 52.98 51.73 51.65 51.93 50.34 47.93 50.75 51.97 54.00 54.21 50.85 46.55 46.75 41.74 39.89 44.37 46.35 48.17 46.96 46.89 42.04 44.29 45.35 43.27 44.84 49.04
58.18 57.85 57.05 56.26 55.67 55.01 53.40 55.20 52.29 54.31 53.50 50.96 50.02 47.06 49.75 50.58 55.19 52.71 53.02 52.67 53.10 51.53 50.21 50.53 49.76 51.46 55.67 55.42 55.07 61.06 52.95 41.79 42.39 41.37 44.86 45.63 45.18 48.92 46.65 46.13 44.96 45.95 46.54 49.78
58.26 57.96 57.13 56.64 55.98 55.07 52.68 52.72 50.84 52.59 50.07 52.04 51.26 48.44 49.94 51.36 50.52 52.78 50.76 50.61 52.78 50.10 46.62 47.79 48.39 49.91 51.49 54.53 56.49 51.57 48.51 43.61 42.90 45.18 48.55 48.06 48.22 49.61 49.65 45.83 47.86 45.99 48.97 49.56
58.05 58.07 57.48 57.01 56.02 54.72 55.22 51.39 50.52 52.58 51.12 51.48 49.27 46.74 48.54 50.60 51.65 50.58 48.37 48.03 51.60 50.31 45.62 46.01 45.00 46.95 46.32 47.78 51.10 47.37 46.46 43.38 43.13 44.46 48.36 49.55 49.45 51.74 54.13 53.52 51.80 50.71 50.16 49.58
58.06 58.05 57.54 57.11 56.02 54.86 53.91 54.54 54.51 53.33 50.41 51.62 48.53 48.01 49.69 52.75 51.45 51.90 52.63 50.28 49.26 48.86 50.29 51.15 50.87 49.83 49.43 48.72 48.53 47.18 45.18 42.75 41.76 40.13 45.04 46.54 45.35 49.53 52.04 54.01 53.47 52.80 49.80 53.01
57.75 57.83 57.92 57.52 56.88 55.50 52.36 54.19 53.74 51.73 50.45 52.24 52.37 53.79 54.29 53.90 52.48 49.47 52.75 52.42 49.10 51.88 52.30 49.83 48.43 48.34 47.28 47.46 46.96 47.59 44.15 42.13 40.03 40.54 42.24 39.04 48.25 52.12 53.81 55.19 55.62 57.74 57.80 58.41
57.47 57.63 58.15 58.08 57.56 56.38 53.15 54.86 55.35 51.87 49.34 53.33 54.21 54.37 53.00 52.29 52.50 52.15 52.70 55.47 54.18 51.08 48.70 45.72 44.64 45.11 47.56 47.31 47.82 44.32 44.94 42.28 39.52 39.37 38.19 42.33 50.48 52.95 56.35 55.14 54.28 59.01 58.65 60.16
57.34 57.52 58.02 58.02 57.64 56.48 54.16 54.84 56.84 54.04 50.37 51.16 55.86 52.92 52.47 48.87 48.65 51.40 54.00 56.08 54.58 49.96 45.96 45.55 42.15 41.81 44.78 45.14 46.90 43.95 45.38 43.25 43.47 38.83 39.75 36.98 48.36 54.62 57.88 57.79 51.23 57.90 59.89 60.47
57.66 57.64 58.03 58.00 57.79 57.06 55.17 54.89 56.39 55.05 50.88 52.81 53.53 52.05 51.45 53.12 50.24 48.43 50.27 53.36 53.17 50.28 46.11 44.47 42.62 44.05 48.61 44.48 44.72 46.62 44.86 45.19 41.33 39.95 39.58 46.27 52.82 57.33 56.33 45.96 49.09 58.59 60.64 61.15
58.39 58.21 57.75 57.85 57.54 57.89 56.50 54.97 56.85 55.66 51.69 53.46 56.49 57.16 53.11 52.99 50.84 48.36 50.90 50.77 50.94 48.69 46.08 46.30 46.30 45.51 47.19 44.67 45.29 47.64 46.38 44.83 44.65 43.98 42.03 42.66 56.50 56.22 50.16 52.59 55.97 59.19 59.49 59.83
58.20 58.57 58.26 57.48 57.08 57.32 57.10 53.30 57.57 58.30 54.32 53.94 57.31 59.73 60.70 58.99 58.18 52.96 49.96 49.71 49.36 50.51 47.11 46.80 46.62 46.29 46.26 44.22 43.72 48.52 46.92 48.77 47.47 48.87 48.96 53.52 55.07 54.75 56.95 57.86 57.48 57.83 58.43 58.82
58.05 58.40 58.78 58.05 56.75 57.35 57.06 52.98 53.89 55.02 52.62 53.87 53.25 53.82 58.01 58.19 58.66 57.61 51.51 49.47 52.58 50.77 51.96 48.69 46.75 44.86 46.09 42.90 44.30 46.21 49.73 51.39 50.65 50.07 53.86 53.97 55.32 56.36 57.71 57.48 56.83 57.00 57.40 58.98
57.96 57.90 57.65 57.22 56.74 56.50 56.68 52.28 54.32 54.40 53.18 49.52 51.52 59.10 56.71 59.20 57.78 57.82 56.68 53.87 52.48 52.37 51.00 47.60 46.57 46.43 49.57 46.42 47.99 47.21 50.12 51.06 49.96 49.35 52.52 54.31 56.02 56.65 56.77 57.65 58.15 58.19 58.62 57.86
56.36 56.09 55.89 55.76 55.72 55.55 54.42 54.17 53.95 55.76 53.65 48.72 50.53 54.99 56.36 57.07 56.24 56.95 55.29 53.91 51.53 50.44 49.11 47.48 47.06 48.03 48.74 47.84 47.64 46.23 51.14 50.48 48.32 47.70 52.21 53.16 53.82 56.94 58.77 57.80 58.74 60.62 61.28 60.01
54.42 54.29 54.42 54.58 54.09 54.43 52.28 52.40 55.36 56.10 54.82 51.00 47.55 53.09 54.72 56.42 55.45 54.23 54.62 53.82 51.76 50.72 49.72 48.00 48.92 50.34 49.80 45.70 44.56 50.16 50.96 51.92 53.22 52.50 53.39 55.32 57.51 58.33 58.83 58.33 59.38 60.58 61.63 61.18
54.05 54.01 53.85 53.60 52.82 52.51 50.84 50.85 53.64 52.75 53.03 51.80 48.50 49.65 54.95 56.29 53.60 51.94 52.35 51.99 51.48 51.13 49.13 48.18 48.72 49.60 49.59 46.43 44.78 50.84 52.70 54.10 54.89 55.83 56.31 54.98 57.99 57.02 59.07 60.08 60.73 60.19 62.03 60.95
54.12 53.71 53.44 53.13 53.18 52.51 50.20 54.10 54.04 54.69 55.03 53.63 47.06 47.75 50.21 53.31 50.48 50.07 51.22 50.54 50.65 49.87 49.21 48.80 48.20 48.95 47.79 45.20 49.00 51.33 53.78 54.47 54.89 56.37 56.16 56.30 56.23 57.95 57.57 58.46 60.48 60.05 60.04 60.22
53.71 53.21 53.26 52.62 50.30 48.93 50.37 57.76 58.14 57.20 55.09 51.52 48.99 45.50 45.64 52.89 50.34 50.09 51.01 50.49 47.85 50.47 48.61 47.77 49.56 46.05 45.62 48.91 50.02 51.85 53.75 53.90 56.10 56.00 56.63 54.77 56.43 57.94 57.28 57.94 59.37 58.71 59.29 60.75
52.96 50.28 45.98 42.38 47.30 56.16 56.44 55.33 53.52 54.41 54.89 53.93 49.14 49.49 47.58 49.74 48.63 48.75 49.16 48.73 47.59 45.58 49.47 50.31 47.19 46.18 49.51 51.15 52.87 54.57 55.17 55.65 56.13 53.33 53.56 52.03 52.31 55.30 55.94 56.74 58.69 59.89 60.76 61.25
47.10 46.02 44.64 48.73 55.47 49.54 50.15 48.16 48.83 50.53 49.58 52.44 52.20 48.92 47.51 50.82 47.12 47.21 49.48 47.09 47.77 44.68 48.31 48.43 45.50 45.54 49.62 53.07 53.66 54.45 54.06 56.13 57.25 56.82 57.01 55.88 55.33 55.19 55.52 55.86 58.20 59.43 60.71 60.83
47.56 48.75 51.45 51.17 48.73 47.21 45.50 44.89 47.84 47.57 47.28 51.72 50.83 49.85 50.87 49.97 50.86 47.17 48.87 48.30 47.40 44.40 50.12 47.39 44.19 48.54 51.10 53.20 54.58 56.67 57.72 55.38 57.39 58.63 57.90 57.33 56.45 56.20 57.03 58.10 58.52 60.33 61.06 60.26
50.23 49.20 47.22 45.01 44.94 37.98 40.65 39.58 43.08 45.32 48.70 51.10 51.02 49.20 50.19 50.52 50.51 47.72 48.19 47.31 47.72 52.64 48.27 45.66 45.70 48.98 49.30 50.21 51.91 54.17 56.34 58.24 58.90 58.72 58.79 58.80 58.30 58.33 59.13 58.74 59.69 61.29 60.53 59.63
44.47 43.01 34.92 40.37 39.24 39.30 40.25 41.57 45.46 49.14 49.66 49.86 49.99 48.54 48.58 49.37 47.80 50.26 47.53 48.04 47.96 45.14 45.23 46.05 46.86 47.75 48.02 49.45 51.38 54.58 55.15 56.43 58.85 59.35 58.54 58.25 57.98 58.05 59.97 60.31 60.39 60.08 58.92 58.66
42.79 43.64 36.48 38.42 41.68 42.70 44.69 45.67 45.70 48.56 51.57 50.55 50.25 50.27 49.24 49.66 47.97 50.12 48.13 47.32 44.52 44.04 42.59 44.92 46.60 47.58 48.55 49.19 50.62 51.90 54.34 54.88 55.41 59.46 57.76 57.52 57.46 58.16 58.97 59.47 60.07 60.67 59.55 59.15
44.42 44.42 41.61 41.19 40.76 41.19 43.69 45.12 45.30 48.71 51.16 52.16 51.40 47.98 45.73 46.69 47.91 47.79 47.26 46.57 44.15 44.78 46.79 47.58 47.26 47.04 47.69 48.61 50.30 51.50 53.95 55.57 55.83 58.42 58.16 57.43 56.65 57.90 59.33 59.22 58.49 58.36 59.63 58.64
42.53 40.35 41.64 42.27 42.13 41.83 43.00 45.85 47.76 52.08 50.42 46.04 47.17 44.39 44.07 47.17 44.18 44.23 47.40 44.93 46.79 48.90 49.90 49.56 47.85 47.82 47.69 48.73 50.08 51.51 53.22 54.87 55.72 56.60 58.64 56.62 58.28 58.08 58.54 57.94 57.81 59.16 59.29 59.11
MSLP
1017.71 1016.67 1015.45 1013.99 1012.59 1010.96 1009.62 1009.75 1009.56 1007.98 1008.14 1008.39 1009.09 1008.79 1007.33 1005.78 1005.27 1004.66 1005.04 1005.36 1005.65 1005.71 1005.96 1006.13 1005.76 1005.29 1004.69 1004.09 1004.39 1005.46 1005.98 1006.62 1006.79 1005.90 1005.08 1005.16 1005.16 1006.00 1007.77 1010.30 1012.73 1013.38 1013.41 1012.46
1017.95 1016.95 1015.72 1014.31 1013.04 1012.13 1011.49 1010.90 1010.03 1008.26 1008.05 1009.02 1009.33 1008.26 1007.10 1006.41 1005.60 1005.48 1005.65 1005.94 1006.13 1006.10 1006.54 1006.73 1006.33 1005.65 1005.01 1004.66 1004.87 1005.56 1005.85 1007.27 1007.73 1006.64 1006.26 1005.83 1005.94 1006.29 1007.52 1009.10 1010.71 1012.64 1012.99 1012.48
1018.26 1017.27 1016.09 1014.62 1013.20 1012.31 1011.91 1011.36 1011.07 1010.04 1009.39 1009.90 1009.98 1009.27 1008.08 1006.95 1006.14 1006.42 1006.43 1006.77 1006.33 1006.77 1007.21 1007.18 1007.31 1006.62 1005.87 1005.49 1005.60 1005.73 1005.85 1008.16 1008.57 1008.43 1007.71 1006.93 1006.62 1006.45 1006.95 1008.27 1010.18 1011.93 1012.03 1011.69
1018.59 1017.72 1016.71 1015.22 1013.33 1012.18 1011.97 1012.24 1013.34 1012.78 1011.77 1010.97 1010.68 1009.53 1008.61 1007.65 1007.02 1006.64 1006.83 1007.45 1007.49 1007.69 1008.11 1007.91 1007.76 1007.47 1006.82 1006.25 1006.26 1006.38 1007.18 1008.87 1008.76 1008.35 1007.65 1006.83 1006.66 1006.63 1006.78 1007.50 1009.13 1009.86 1010.72 1011.17
1018.89 1018.17 1017.32 1016.27 1014.50 1012.50 1012.63 1014.14 1014.41 1013.40 1012.72 1012.00 1010.96 1010.18 1009.73 1008.87 1007.93 1007.41 1007.48 1007.94 1008.05 1007.81 1008.09 1008.24 1008.24 1008.13 1007.82 1007.55 1007.17 1007.65 1008.40 1009.12 1009.08 1008.66 1007.75 1007.35 1007.02 1006.86 1006.97 1007.39 1008.73 1009.22 1010.05 1010.63
1019.16 1018.59 1017.98 1017.24 1016.30 1014.58 1015.25 1015.13 1014.76 1014.46 1013.70 1012.81 1012.02 1011.36 1010.28 1009.54 1008.54 1008.05 1007.66 1007.50 1007.70 1007.93 1007.85 1007.72 1007.60 1007.68 1007.69 1007.83 1008.15 1008.64 1008.98 1009.66 1010.19 1009.63 1008.53 1007.70 1007.61 1007.34 1007.29 1007.61 1008.32 1008.51 1009.84 1009.64
1019.39 1018.88 1018.38 1017.93 1017.44 1017.21 1017.20 1016.43 1015.84 1015.18 1014.76 1013.60 1012.84 1011.55 1010.39 1009.93 1009.58 1008.98 1008.20 1007.90 1007.81 1007.64 1007.50 1007.59 1007.78 1007.88 1007.64 1007.74 1007.97 1008.45 1009.51 1010.27 1010.76 1010.73 1009.48 1008.98 1008.02 1007.21 1007.02 1007.31 1008.25 1008.66 1008.90 1009.43
1019.49 1019.08 1018.65 1018.18 1017.78 1017.37 1017.12 1016.52 1016.22 1016.06 1015.46 1014.33 1012.86 1011.94 1011.05 1010.37 1009.91 1009.70 1009.14 1008.62 1008.50 1008.20 1008.47 1008.92 1009.10 1008.80 1008.28 1007.88 1008.13 1008.90 1009.29 1010.31 1011.58 1011.54 1010.83 1009.67 1008.33 1007.69 1007.58 1007.57 1008.76 1008.68 1008.92 1009.41
1019.46 1019.15 1018.79 1018.42 1018.03 1017.61 1017.02 1016.66 1016.33 1016.28 1016.09 1014.43 1013.43 1012.48 1011.72 1011.65 1011.33 1010.72 1009.82 1009.05 1008.63 1008.79 1010.08 1010.57 1010.63 1010.06 1009.29 1008.73 1008.77 1009.36 1009.86 1010.20 1011.07 1011.97 1011.24 1009.97 1008.75 1007.86 1007.52 1007.78 1008.93 1008.82 1008.86 1009.49
1019.25 1019.05 1018.78 1018.50 1018.18 1017.84 1017.70 1016.87 1016.30 1016.40 1016.26 1014.34 1013.45 1012.71 1012.25 1011.86 1011.87 1011.90 1011.34 1010.67 1010.03 1010.01 1011.24 1011.95 1011.97 1011.13 1010.19 1009.81 1009.68 1009.96 1010.50 1011.51 1011.83 1011.86 1011.07 1009.79 1008.42 1008.04 1007.91 1008.76 1008.94 1008.57 1008.94 1009.53
1018.98 1018.80 1018.63 1018.47 1018.26 1017.99 1017.78 1016.96 1016.31 1016.55 1016.49 1014.59 1013.36 1012.47 1012.05 1011.97 1012.18 1012.36 1011.75 1011.52 1011.42 1011.62 1012.57 1012.97 1012.92 1012.18 1011.41 1010.96 1010.45 1010.35 1010.93 1011.60 1012.01 1012.04 1011.16 1009.70 1008.09 1007.92 1008.10 1008.28 1008.31 1008.39 1008.90 1009.39
1018.70 1018.53 1018.37 1018.30 1018.21 1018.01 1017.82 1017.46 1016.40 1016.42 1016.65 1014.66 1013.19 1012.09 1011.46 1011.21 1011.18 1011.80 1012.06 1012.23 1012.18 1012.24 1012.92 1013.32 1013.22 1012.97 1012.37 1012.28 1011.52 1010.64 1011.12 1010.99 1011.02 1011.37 1010.50 1009.01 1008.31 1007.92 1007.87 1008.05 1008.36 1008.78 1008.93 1009.34
1018.29 1018.19 1018.12 1018.03 1018.07 1017.92 1017.88 1017.71 1017.09 1016.71 1016.47 1014.60 1013.30 1011.48 1010.54 1010.26 1010.56 1010.74 1011.56 1011.86 1011.53 1011.99 1012.15 1013.07 1013.54 1013.48 1013.00 1012.84 1012.20 1011.41 1010.74 1010.55 1010.85 1010.75 1009.86 1009.11 1008.53 1008.33 1008.22 1008.34 1008.64 1008.81 1009.02 1009.46
1017.89 1017.88 1017.89 1017.91 1017.91 1017.79 1017.75 1017.73 1017.26 1017.10 1017.01 1016.05 1012.83 1011.17 1010.61 1009.81 1009.91 1010.15 1010.26 1010.60 1011.12 1011.63 1012.25 1013.10 1013.57 1013.62 1012.94 1012.92 1012.36 1012.07 1011.10 1010.71 1010.87 1010.81 1010.05 1009.42 1008.95 1008.59 1008.43 1008.57 1008.70 1008.93 1009.10 1009.29
1017.84 1017.83 1017.82 1017.85 1017.77 1017.63 1017.54 1017.36 1016.96 1016.74 1016.96 1016.42 1014.18 1012.10 1009.97 1009.54 1009.43 1009.53 1009.90 1010.50 1011.21 1012.13 1012.94 1013.55 1013.68 1013.07 1013.11 1012.83 1012.70 1012.14 1010.79 1010.47 1010.57 1010.49 1009.85 1009.48 1009.06 1008.54 1008.49 1008.62 1008.83 1008.96 1009.19 1009.72
1017.96 1017.88 1017.84 1017.79 1017.65 1017.45 1017.34 1017.16 1016.62 1016.47 1016.44 1016.49 1015.17 1012.42 1010.71 1009.59 1009.14 1009.41 1009.93 1010.38 1011.23 1012.03 1012.77 1013.24 1012.98 1012.42 1012.46 1012.92 1012.70 1010.91 1010.22 1009.80 1009.56 1009.53 1009.09 1008.99 1008.52 1008.25 1008.36 1008.50 1008.79 1009.09 1009.38 1009.79
1017.96 1017.91 1017.80 1017.64 1017.49 1017.53 1017.20 1016.83 1016.56 1016.42 1016.63 1016.22 1015.39 1013.29 1010.77 1009.62 1009.31 1009.68 1010.13 1010.46 1011.10 1011.74 1012.61 1013.01 1012.90 1012.52 1012.42 1012.78 1012.05 1010.53 1009.83 1009.45 1009.21 1008.83 1008.53 1008.60 1008.44 1008.35 1008.23 1008.23 1008.58 1009.02 1009.56 1010.15
1017.85 1017.73 1017.54 1017.27 1016.96 1017.01 1016.68 1015.76 1015.71 1016.04 1016.11 1015.79 1015.42 1013.63 1011.92 1009.97 1009.97 1010.20 1010.11 1010.76 1011.42 1011.90 1012.14 1012.64 1012.71 1012.65 1012.55 1012.19 1010.54 1009.70 1008.90 1008.57 1008.47 1008.14 1007.98 1007.89 1007.86 1008.06 1008.31 1008.42 1008.84 1009.34 1009.94 1010.45
1017.66 1017.49 1017.09 1017.02 1016.85 1016.73 1015.81 1015.34 1015.26 1015.35 1015.91 1015.25 1014.89 1014.11 1012.22 1010.62 1010.62 1010.45 1010.51 1010.76 1011.85 1011.98 1011.98 1012.17 1012.30 1012.56 1012.16 1010.59 1009.86 1009.25 1008.42 1008.25 1007.80 1007.45 1007.44 1007.65 1007.81 1007.84 1008.13 1008.61 1009.13 1009.51 1010.07 1010.53
1017.61 1017.64 1017.41 1017.15 1016.34 1015.78 1015.46 1015.12 1015.01 1015.06 1014.75 1014.67 1014.25 1013.61 1012.74 1011.80 1011.40 1011.11 1011.41 1011.34 1011.37 1011.86 1011.40 1011.51 1011.78 1011.79 1010.39 1009.53 1009.12 1008.58 1008.20 1008.00 1007.88 1007.70 1007.69 1007.79 1008.13 1008.14 1008.23 1008.57 1008.90 1009.21 1009.71 1010.36
1017.69 1017.64 1017.36 1016.45 1015.88 1015.96 1015.64 1015.18 1014.89 1014.24 1013.68 1013.36 1013.04 1012.98 1012.53 1011.92 1011.97 1011.79 1011.46 1011.39 1011.23 1011.33 1010.75 1011.09 1011.75 1011.65 1010.38 1009.33 1008.86 1008.40 1008.03 1007.76 1007.55 1007.47 1007.17 1007.03 1007.25 1007.76 1008.10 1008.48 1008.83 1009.22 1009.58 1010.11
1017.39 1017.38 1016.89 1016.50 1016.30 1016.18 1015.91 1015.08 1014.26 1013.56 1012.78 1012.49 1012.34 1011.87 1011.76 1011.72 1011.52 1011.88 1011.38 1011.15 1010.93 1010.40 1010.07 1010.93 1011.99 1011.82 1011.90 1011.20 1010.59 1009.85 1009.16 1008.04 1007.27 1006.84 1006.83 1006.83 1006.96 1007.09 1007.51 1007.89 1008.32 1008.76 1009.14 1009.78
1017.07 1016.96 1016.72 1016.50 1016.25 1015.96 1015.22 1013.97 1013.27 1012.63 1012.21 1011.89 1011.94 1011.89 1011.75 1011.78 1011.75 1011.83 1011.53 1010.92 1010.13 1009.52 1010.34 1010.89 1012.20 1013.18 1012.73 1012.04 1011.05 1009.78 1009.45 1008.57 1007.37 1006.87 1006.32 1006.19 1006.46 1006.71 1007.17 1007.58 1007.82 1008.20 1009.02 1009.60
1017.31 1016.69 1016.67 1016.07 1015.47 1014.86 1013.83 1013.03 1012.28 1011.81 1011.74 1011.79 1011.85 1012.18 1012.03 1011.78 1011.92 1011.47 1011.30 1010.55 1010.11 1010.12 1010.71 1011.79 1013.21 1013.24 1013.06 1012.59 1011.85 1010.95 1009.95 1009.03 1008.08 1007.26 1006.77 1006.13 1006.02 1006.39 1006.64 1007.04 1007.46 1008.15 1008.97 1009.53
1016.92 1016.35 1015.74 1015.15 1014.24 1013.68 1013.09 1012.61 1012.37 1011.83 1011.64 1011.83 1012.11 1012.16 1012.12 1012.00 1011.75 1010.85 1010.60 1010.50 1010.26 1010.83 1012.01 1013.00 1013.26 1013.21 1013.23 1012.67 1011.74 1011.07 1010.53 1009.87 1009.13 1007.95 1006.98 1006.53 1006.03 1006.16 1006.49 1006.90 1007.30 1007.63 1008.42 1009.19
1016.28 1015.63 1015.02 1014.38 1014.05 1013.40 1012.88 1012.39 1012.13 1011.69 1011.71 1011.88 1011.91 1012.18 1012.39 1011.98 1011.63 1010.94 1010.25 1010.22 1011.07 1012.33 1012.81 1013.16 1013.51 1013.61 1013.38 1013.25 1012.69 1012.09 1011.44 1010.31 1009.11 1008.46 1007.13 1006.20 1006.19 1005.83 1005.93 1006.40 1007.00 1007.59 1007.86 1008.62
1015.61 1015.19 1014.77 1014.43 1014.03 1013.45 1012.76 1012.09 1011.71 1011.37 1011.82 1012.34 1012.53 1012.56 1012.36 1012.24 1011.83 1011.56 1011.41 1011.74 1012.52 1012.91 1013.09 1013.03 1013.26 1013.48 1013.29 1013.20 1012.89 1012.37 1011.35 1010.60 1009.98 1009.04 1007.39 1006.28 1005.58 1005.74 1005.71 1006.31 1006.76 1007.13 1007.60 1007.96
Wind_Speed
27 29 31 31 32 32 5 2 5 2 2 5 1 1 5 6 6 5 6 4 1 1 2 3 3 4 4 1 5 4 3 6 2 4 1 2 3 4 6 7 3 3 4 7
27 29 31 33 31 27 3 3 2 3 5 4 6 7 5 5 10 8 5 8 6 6 6 5 6 6 7 9 3 3 4 4 4 11 8 6 5 4 6 6 5 3 7 7
26 28 29 33 32 28 1 3 4 6 5 1 3 4 6 4 4 6 6 5 6 7 9 8 5 8 6 7 5 5 9 4 6 6 8 3 2 4 3 6 5 6 5 3
24 26 29 32 35 32 1 5 1 2 4 6 6 2 3 6 8 4 6 7 7 3 7 7 7 4 7 5 9 6 6 3 1 4 6 3 2 3 4 6 5 6 8 9
22 24 26 29 32 33 6 4 4 5 3 4 6 7 7 8 6 7 6 7 2 5 4 3 3 3 2 2 7 5 4 0 2 5 7 7 7 6 7 6 5 9 8 3
20 22 23 24 24 18 4 3 2 3 5 7 4 4 3 5 4 3 3 4 4 3 4 5 8 7 5 5 1 2 3 3 4 5 6 4 7 7 2 3 4 14 10 9
17 19 21 21 18 11 1 2 0 4 3 3 3 5 1 7 6 2 4 4 4 5 4 2 2 1 5 4 6 5 4 4 2 3 5 4 8 6 3 6 4 1 4 6
15 16 18 19 17 15 1 3 3 3 2 3 5 8 5 5 7 7 3 5 2 4 7 5 6 6 2 4 3 5 2 5 4 3 1 3 4 5 3 6 3 2 7 7
13 14 15 16 17 15 2 3 0 2 3 4 4 4 4 2 4 8 4 4 5 7 4 4 2 1 1 3 4 5 7 6 6 2 3 2 7 4 3 4 3 1 5 8
12 12 13 14 15 13 3 3 1 3 0 5 2 1 2 0 2 1 4 8 9 4 4 4 2 3 3 2 1 1 4 4 4 2 2 6 6 2 0 3 10 5 6 9
11 10 11 12 13 12 6 5 2 3 1 7 4 3 1 2 2 2 5 5 5 5 5 2 2 1 2 3 3 2 3 4 2 3 4 4 0 1 4 7 1 6 6 6
11 10 9 10 11 11 7 3 2 1 3 7 4 9 11 9 13 5 1 4 3 4 4 0 1 2 3 1 2 5 2 5 5 6 7 5 4 2 3 4 5 2 6 2
10 9 8 8 9 8 4 3 3 2 2 6 3 4 5 3 7 5 4 3 4 1 4 4 2 0 3 1 3 3 5 2 3 4 4 1 3 3 4 4 6 5 5 6
8 6 6 6 5 7 4 2 1 2 0 2 8 4 6 4 5 8 7 4 3 5 3 2 3 2 3 4 3 3 5 3 2 2 3 2 3 2 5 6 6 5 4 4
1 3 4 6 7 8 4 4 3 2 4 3 6 9 7 6 3 8 7 6 4 2 2 2 3 2 2 0 2 3 4 6 4 6 6 4 6 6 5 6 6 6 6 4
5 6 7 8 9 9 1 1 0 1 1 1 5 5 6 4 3 2 5 5 4 3 5 3 3 3 4 2 3 6 4 3 6 4 5 9 4 5 4 7 7 5 8 7
6 8 8 9 8 3 3 3 1 3 1 3 4 6 6 4 2 1 3 2 2 4 3 2 3 2 4 3 5 6 7 8 7 7 4 1 5 7 8 8 8 9 6 5
7 8 9 11 12 6 6 2 2 4 2 2 2 6 5 4 2 2 1 4 2 1 4 2 2 2 2 4 9 9 9 7 5 9 7 7 3 3 5 4 6 7 9 7
7 8 11 4 0 2 3 6 8 3 3 3 3 3 4 5 2 1 3 3 2 0 3 3 5 1 5 8 8 7 7 6 6 2 5 5 7 9 7 6 6 9 7 7
2 3 2 3 3 7 8 2 2 2 3 3 3 1 4 3 3 2 2 1 4 3 6 4 4 5 7 7 9 7 6 8 4 3 1 3 3 7 7 9 8 10 13 10
1 2 3 4 4 3 2 2 3 3 4 4 4 6 3 2 2 2 2 2 1 3 6 7 4 4 5 6 9 8 8 8 9 8 7 8 8 8 7 6 8 8 10 11
3 1 3 2 1 1 3 4 3 4 4 2 4 9 7 3 2 2 2 3 2 6 3 5 5 1 8 13 15 16 15 10 12 10 11 9 9 8 8 8 9 12 11 9
3 3 3 3 2 3 5 5 3 3 3 4 3 2 3 1 1 2 1 4 5 1 3 6 3 5 7 9 12 16 12 14 8 10 8 10 8 7 7 7 7 12 12 9
2 2 2 5 5 6 6 4 3 2 2 3 3 0 3 1 4 4 4 6 1 3 2 4 2 5 7 7 8 10 16 17 17 14 9 10 10 9 8 10 11 11 11 9
4 4 5 7 5 3 3 3 2 1 2 3 2 0 1 1 3 5 4 4 5 1 3 1 4 7 7 10 13 14 13 13 14 16 9 8 9 8 8 8 11 14 11 12
4 4 3 3 1 3 3 3 4 2 3 2 3 3 1 3 2 3 4 3 4 3 2 3 2 5 6 6 8 10 11 10 11 14 12 8 8 10 11 11 10 9 14 13
3 3 2 3 3 4 4 3 4 2 4 3 3 5 4 2 1 2 3 4 3 1 3 2 3 6 7 7 7 10 11 10 9 9 10 7 7 4 9 13 11 12 11 12
Wind_Direction
345 344 343 341 343 343 52 38 51 345 358 35 48 210 214 329 334 8 62 94 136 333 30 74 132 152 233 298 144 158 223 127 261 245 301 329 210 137 132 121 199 86 132 260
345 346 345 343 345 355 321 63 285 354 60 43 342 319 339 55 26 18 37 8 39 27 27 71 42 11 2 20 87 150 208 30 18 350 2 6 14 10 104 110 93 192 127 250
346 348 348 346 345 352 358 64 35 339 42 131 336 305 332 28 5 78 61 15 55 42 27 3 36 4 346 349 47 52 75 87 137 169 230 202 323 313 150 118 111 168 203 185
347 350 352 350 346 349 56 21 33 192 336 343 333 332 360 13 8 29 43 21 41 61 33 3 19 343 336 356 355 33 87 75 179 238 252 210 326 301 271 120 138 142 194 158
347 351 355 356 351 342 67 65 31 354 298 309 354 3 349 16 346 21 358 103 40 59 85 145 299 23 323 286 343 37 8 159 324 335 0 24 58 30 51 51 110 73 107 86
346 350 356 359 359 355 38 332 349 102 297 344 52 317 331 10 341 322 33 329 121 133 179 206 217 204 227 224 314 2 66 101 54 294 350 6 18 329 343 81 68 148 155 207
342 348 352 358 359 18 219 267 55 48 309 35 308 313 7 26 341 271 344 19 25 310 350 294 37 255 266 237 238 164 137 96 80 257 8 61 241 312 225 108 79 125 96 131
334 341 347 352 353 355 340 302 48 86 305 255 309 341 359 3 343 24 1 343 290 312 35 28 15 347 15 252 222 176 142 117 81 126 149 295 1 334 146 129 254 307 133 125
322 330 339 346 350 352 344 290 240 99 104 255 285 314 351 44 335 346 311 317 322 56 73 54 55 248 241 319 97 67 76 74 115 112 116 181 225 307 34 84 336 329 135 138
306 318 326 337 345 346 332 287 10 101 68 267 16 284 265 22 55 239 300 330 350 38 35 41 21 309 294 21 52 345 38 17 123 111 144 284 249 260 345 138 230 151 134 150
290 294 312 324 336 343 0 278 295 91 233 277 227 268 205 30 73 99 286 17 344 27 56 79 289 3 309 2 325 345 146 126 153 96 86 255 60 193 193 206 45 119 123 146
283 281 290 311 325 333 346 292 323 26 174 248 252 251 242 199 212 153 282 198 223 208 84 346 114 347 8 125 318 341 28 175 182 159 213 247 281 173 80 122 118 121 122 124
273 270 280 295 315 324 342 284 297 13 4 299 343 274 292 267 192 176 137 280 212 168 173 158 163 1 124 27 274 334 330 146 97 70 295 300 1 57 124 151 136 147 154 157
267 264 281 311 324 323 319 267 281 116 194 267 281 327 296 226 192 193 191 178 58 102 88 108 132 170 161 211 220 157 219 25 120 321 290 46 338 256 167 136 126 124 126 138
303 306 320 324 332 329 292 242 245 237 151 248 281 306 258 282 247 188 165 149 128 110 76 90 228 223 110 355 62 263 187 180 139 219 223 188 229 194 177 147 152 150 126 94
316 327 327 325 333 341 305 318 59 252 158 121 308 290 290 309 289 265 193 160 110 114 142 206 252 261 110 158 224 257 238 197 162 211 211 211 290 216 180 159 159 163 139 137
301 317 320 319 323 325 207 199 181 27 233 143 302 295 270 278 186 82 105 73 131 125 150 205 187 244 104 140 221 251 223 216 221 230 160 265 169 197 195 157 162 149 136 124
278 300 308 308 298 276 291 227 191 160 232 145 222 266 328 355 260 176 187 116 61 324 175 75 176 12 77 242 250 246 246 254 275 250 213 198 228 173 195 133 134 137 148 150
269 313 310 323 17 241 247 280 288 190 239 216 169 207 241 350 348 271 38 87 127 319 172 221 111 212 227 225 230 242 240 192 205 175 200 187 186 195 182 151 155 141 161 148
49 12 21 301 232 298 310 31 159 202 210 214 219 178 266 40 357 10 88 18 196 157 234 112 153 243 243 240 228 234 244 231 241 142 147 190 236 200 189 183 184 174 164 163
88 205 231 249 323 25 2 212 201 202 203 189 203 177 204 293 60 283 177 195 208 168 233 152 193 266 253 292 263 271 253 232 221 217 239 202 178 190 197 196 184 172 159 167
221 272 283 301 323 219 211 203 224 218 228 195 181 204 191 257 132 96 275 231 136 228 140 131 171 264 347 358 346 342 333 278 250 222 220 221 209 200 191 188 167 172 165 145
315 208 190 143 171 218 220 202 207 210 196 196 190 178 161 127 93 196 240 238 244 116 171 194 118 351 335 343 337 330 338 345 319 273 220 204 213 184 179 174 179 158 157 158
253 173 235 208 188 222 207 202 194 215 163 148 123 148 175 201 144 193 188 232 322 281 200 147 352 302 316 325 340 350 345 347 335 318 267 220 186 190 180 169 157 153 158 165
238 195 219 217 234 260 253 232 309 315 118 129 127 106 110 193 239 190 187 195 216 119 107 279 285 312 324 335 346 349 343 338 332 318 280 233 195 173 171 159 173 169 158 160
242 233 264 243 213 274 225 231 256 209 130 35 56 60 352 247 258 251 216 210 75 110 194 223 276 295 304 308 317 318 306 319 336 325 299 241 209 183 179 164 162 171 165 164
249 242 263 242 260 239 262 206 233 161 120 169 154 175 224 22 343 255 27 75 129 192 258 231 237 267 281 293 292 295 310 310 295 305 322 290 232 182 147 165 178 171 177 170